Weather History for Fayetteville, AR

Change the Weather History Date:

Saturday, November 3, 2012

  Actual Average Record
Temperature  
Mean Temperature 54 °F 52 °F  
Max Temperature 66 °F 64 °F 82 °F (2002)
Min Temperature 39 °F 41 °F 8 °F (2002)
Degree Days  
Heating Degree Days 11 13  
Month to date heating degree days 37  
Since 1 July heating degree days 337  
Growing Degree Days 4 (Base 50)    
Moisture  
Dew Point 43 °F    
Average Humidity 59    
Maximum Humidity 83    
Minimum Humidity 41    
Precipitation  
Precipitation 0.00 in 0.14 in 1.37 in (2001)
Month to date precipitation 0.43  
Year to date precipitation 41.47  
Sea Level Pressure  
Sea Level Pressure 30.05 in    
Wind  
Wind Speed 8 mph (NW)    
Max Wind Speed 14 mph    
Max Gust Speed 18 mph    
Visibility 10 miles    
Events      
T = Trace of Precipitation, MM = Missing Value Source: NWS Daily Summary

Daily Weather History Graph

Daily Weather History Graph

Search for Another Location

Airport:

Trip Planner

Search our weather history database for the weather conditions in past years. The results will help you decide how hot, cold, wet, or windy it might be!

Date:

Astronomy

Nov. 03, 2012 Rise Set
Actual Time 7:41 AM CDT 6:18 PM CDT
Civil Twilight 7:15 AM CDT 6:44 PM CDT
Nautical Twilight 6:44 AM CDT 7:15 PM CDT
Astronomical Twilight 6:14 AM CDT 7:45 PM CDT
Moon 10:02 PM CDT (11/3) 11:43 AM CDT (11/3)
Length of Visible Light 11h 29m
Length of Day
10h 36m
Waning Gibbous, 80% of the Moon is Illuminated
Nov 3
Waning Gibbous
Nov 6
Last Quarter
Nov 13
New
Nov 20
First Quarter
Nov 28
Full

Hourly Weather History & Observations

Time (CDT) Temp. Dew Point Humidity Pressure Visibility Wind Dir Wind Speed Gust Speed Precip Events Conditions
12:53 AM 66.0 °F 51.1 °F 59% 29.91 in 10.0 mi SSW 8.1 mph - N/A   Clear
1:53 AM 66.9 °F 52.0 °F 59% 29.91 in 10.0 mi SSW 11.5 mph 18.4 mph N/A   Clear
2:53 AM 66.9 °F 52.0 °F 59% 29.91 in 10.0 mi SSW 11.5 mph - N/A   Clear
3:53 AM 64.9 °F 53.1 °F 65% 29.92 in 10.0 mi SW 9.2 mph - N/A   Clear
4:53 AM 64.9 °F 54.0 °F 68% 29.93 in 10.0 mi SW 10.4 mph - N/A   Clear
5:53 AM 64.0 °F 54.0 °F 70% 29.95 in 10.0 mi SW 10.4 mph - N/A   Clear
6:53 AM 61.0 °F 53.1 °F 75% 29.98 in 10.0 mi West 10.4 mph 18.4 mph N/A   Clear
7:53 AM 53.1 °F 46.0 °F 77% 30.03 in 10.0 mi WNW 13.8 mph - N/A   Clear
8:53 AM 52.0 °F 42.1 °F 69% 30.07 in 10.0 mi NW 5.8 mph - N/A   Clear
9:53 AM 54.0 °F 39.0 °F 57% 30.09 in 10.0 mi North 8.1 mph - N/A   Clear
10:53 AM 55.9 °F 39.0 °F 53% 30.10 in 10.0 mi NNW 9.2 mph - N/A   Clear
11:53 AM 59.0 °F 39.0 °F 48% 30.09 in 10.0 mi NNW 6.9 mph - N/A   Clear
12:53 PM 62.1 °F 39.0 °F 43% 30.08 in 10.0 mi North 9.2 mph - N/A   Clear
1:53 PM 62.1 °F 39.0 °F 43% 30.07 in 10.0 mi North 8.1 mph - N/A   Clear
2:53 PM 64.0 °F 39.9 °F 41% 30.06 in 10.0 mi NNW 10.4 mph 16.1 mph N/A   Clear
3:53 PM 64.0 °F 39.9 °F 41% 30.07 in 10.0 mi Variable 5.8 mph - N/A   Clear
4:53 PM 62.1 °F 37.9 °F 41% 30.08 in 10.0 mi NNW 10.4 mph - N/A   Clear
5:53 PM 59.0 °F 37.9 °F 46% 30.08 in 10.0 mi NNW 9.2 mph - N/A   Clear
6:53 PM 55.9 °F 37.9 °F 51% 30.11 in 10.0 mi NNE 3.5 mph - N/A   Clear
7:53 PM 54.0 °F 37.0 °F 53% 30.13 in 10.0 mi NNE 5.8 mph - N/A   Clear
8:53 PM 50.0 °F 36.0 °F 59% 30.14 in 10.0 mi Calm Calm - N/A   Clear
9:53 PM 46.9 °F 36.0 °F 66% 30.15 in 10.0 mi Calm Calm - N/A   Clear
10:53 PM 42.1 °F 36.0 °F 79% 30.16 in 10.0 mi Calm Calm - N/A   Clear
11:53 PM 39.9 °F 35.1 °F 83% 30.16 in 10.0 mi Calm Calm - N/A   Clear